PWSweather.com
Personal Weather Stations
Station Observations
KWAVA98665
Vancouver, WA 98665

Vancouver, WA 98665

Lat: 45.6827589, Lon: -122.63116100000002

Elevation: 262

Station Type: Davis VP2

http://www.bobsvp2wd.net

Latest ConditionsUpdated 5:00:01 AM PST Sunday, Nov 18, 2018
Currently Today's Max Today's Min Today's Average
Temperature 35.5°F1.9°C 39.7°F4.3°C 35.5°F1.9°C 37.9°F3.3°C
Dew Point 31.1°F-0.5°C 31.1°F-0.5°C 29.8°F-1.2°C 30.3°F-0.9°C
Winds Calm Calm 1.2 mph -1.9 kmh - - 0.1 mph 0.2 kmh
Wind Gusts -- 2.3 mph3.7 kmh - -
Humidity 84% 84% 68% 74%
Pressure 30.15 in1021.0 mb 30.16 in1021.3 mb 30.15 in1021.0 mb -
Hour Temp Dew Point Humidity Winds Wind Gusts Pressure Precip Precip Rate Daily Precip Total
05:00 AM 35.5°F1.9°C 31.1°F-0.5°C 84% Calm Calm -- 30.15 in1021.0 mb - 0.00 in0.0 mm 0.00 in0.0 mm
04:45 AM 35.5°F1.9°C 30.5°F-0.8°C 82% Calm Calm -- 30.15 in1021.0 mb - 0.00 in0.0 mm 0.00 in0.0 mm
04:30 AM 36.0°F2.2°C 30.4°F-0.9°C 80% Calm Calm -- 30.16 in1021.3 mb - 0.00 in0.0 mm 0.00 in0.0 mm
04:15 AM 36.3°F2.4°C 30.4°F-0.9°C 79% Calm Calm -- 30.15 in1021.0 mb - 0.00 in0.0 mm 0.00 in0.0 mm
04:00 AM 36.8°F2.7°C 30.3°F-0.9°C 77% Calm Calm -- 30.15 in1021.0 mb - 0.00 in0.0 mm 0.00 in0.0 mm
03:45 AM 36.9°F2.7°C 30.0°F-1.1°C 76% Calm Calm -- 30.15 in1021.0 mb - 0.00 in0.0 mm 0.00 in0.0 mm
03:30 AM 36.9°F2.7°C 30.0°F-1.1°C 76% Calm Calm -- 30.15 in1021.0 mb - 0.00 in0.0 mm 0.00 in0.0 mm
03:15 AM 36.7°F2.6°C 29.8°F-1.2°C 76% Calm Calm -- 30.15 in1021.0 mb - 0.00 in0.0 mm 0.00 in0.0 mm
03:00 AM 37.1°F2.8°C 29.9°F-1.2°C 75% Calm Calm -- 30.15 in1021.0 mb - 0.00 in0.0 mm 0.00 in0.0 mm
02:45 AM 37.5°F3.1°C 30.0°F-1.1°C 74% Calm Calm -- 30.15 in1021.0 mb - 0.00 in0.0 mm 0.00 in0.0 mm
02:30 AM 38.7°F3.7°C 29.8°F-1.2°C 70% Calm Calm -- 30.16 in1021.3 mb - 0.00 in0.0 mm 0.00 in0.0 mm
02:15 AM 39.7°F4.3°C 30.0°F-1.1°C 68% Calm Calm -- 30.16 in1021.3 mb - 0.00 in0.0 mm 0.00 in0.0 mm
02:00 AM 39.3°F4.1°C 30.0°F-1.1°C 69% 1.2 mph SE1.9 kmh SE 2.3 mph3.7 kmh 30.16 in1021.3 mb - 0.00 in0.0 mm 0.00 in0.0 mm
01:45 AM 39.4°F4.1°C 30.1°F-1.1°C 69% Calm Calm -- 30.16 in1021.3 mb - 0.00 in0.0 mm 0.00 in0.0 mm
01:30 AM 39.0°F3.9°C 30.1°F-1.1°C 70% Calm Calm -- 30.16 in1021.3 mb - 0.00 in0.0 mm 0.00 in0.0 mm
01:15 AM 39.5°F4.2°C 30.2°F-1.0°C 69% Calm Calm -- 30.16 in1021.3 mb - 0.00 in0.0 mm 0.00 in0.0 mm
01:00 AM 39.1°F3.9°C 30.5°F-0.8°C 71% Calm Calm -- 30.16 in1021.3 mb - 0.00 in0.0 mm 0.00 in0.0 mm
12:45 AM 38.9°F3.8°C 30.3°F-0.9°C 71% Calm Calm -- 30.16 in1021.3 mb - 0.00 in0.0 mm 0.00 in0.0 mm
12:30 AM 39.0°F3.9°C 30.4°F-0.9°C 71% Calm Calm -- 30.16 in1021.3 mb - 0.00 in0.0 mm 0.00 in0.0 mm
12:15 AM 39.4°F4.1°C 30.8°F-0.7°C 71% Calm Calm -- 30.16 in1021.3 mb - 0.00 in0.0 mm 0.00 in0.0 mm
12:00 AM 39.5°F4.2°C 30.8°F-0.7°C 71% Calm Calm -- 30.16 in1021.3 mb - 0.00 in0.0 mm 0.00 in0.0 mm